BREEZE-KM R/B

Satellite information

Favourite Embed

Satellite Type and Status

ROCKET BODYIN ORBIT

Key statistics

Satellite BREEZE-KM R/B at a glance.

Uptime

2631

Days in orbit

Revolutions

≈ 15.2

Per day

Orbit

SSO

Sun Synchronous Orbit

Inclination

98.7

Latest

Satellite identification and parameters

Extended collection of information and parameters for BREEZE-KM R/B.

Object identification

Identified? True

Debris? False

Object name: BREEZE-KM R/B

International designator: 2018-039B

Object number (NORAD): 43438

Object ID (CCSDS): 43438

Country: COMMONWEALTH OF INDEPENDENT STATES (CIS)

Current information (Y/N): Y

RCS size: LARGE

Orbital parameters

Period: 94.606 minutes

Inclination: 98.6889 deg

SMA: 6877.65 km

Apoapsis: 615.193 km

Periapsis: 383.836 km

RAAN: 258.5664 deg

Eccentricy: 0.0168195

Argument of periapsis: 290.1263 deg

Mean anomaly: 68.1941 deg

Mean motion: 15.2209822 rev/day

Mean motion (dot): 0.00004117 rev/day2

B* drag term: 0.00012506 1/REarth

Two-line elements (TLE)

Creation date: July 8, 2025, 2:27 a.m.

Reference frame: TEME

Reference center: EARTH

Epoch: July 7, 2025, 10:04 p.m. UTC

TLE line 0: 0 BREEZE-KM R/B

TLE line 1: 1 43438U 18039B 25188.92004208 .00004117 00000-0 12506-3 0 9992

TLE line 2: 2 43438 98.6889 258.5664 0168195 290.1263 68.1941 15.22098220394951

Live tracking on map

Real-time ground track for satellite BREEZE-KM R/B.

In-orbit conjunctions

A list of the most updated potential collisions computed for object BREEZE-KM R/B.

Target Orbit TCA Probability of collision Miss distance Type
ATLAS H R/B LEO 2025-03-23 08:45:30 0.01384258 23.0 (m) ROCKET BODY
CZ-2C DEB SSO 2024-10-06 20:35:31 0.0001407981 941.0 (m) DEBRIS

Associated space launch

Sentinel-3B is the second in a constellation of earth observation satellites developed by ESA to provide near real time data for the Global Monitoring for Environment and Security Program. Sentinel-3B contains a temperature scanner, colour instrument and altimeter for monitoring the sea and land. The satellite focuses on providing accurate data about the oceans and in addition also provides information about wildfires and vegetation.

BREEZE-KM R/B was lifted into orbit during the mission ‘Rokot / Briz-KM | Sentinel-3B’, on board a Rokot/Briz-KM space rocket.

The launch took place on April 25, 2018, 5:57 p.m. from 133/3 (133L).

For more information about the launch, click the button.

Launch to space Rokot / Briz-KM | Sentinel-3B
Rokot / Briz-KM | Sentinel-3B

Agency: N/A

Status: Launch Successful

Launch date: April 25, 2018, 5:57 p.m. UTC

Rocket: Rokot/Briz-KM

Launch pad: 133/3 (133L)

Location: Plesetsk Cosmodrome, Russian Federation

...

Latest news about this satellite

There are no fresh news available about this satellite. Check back as we update our databases every day.


Newsletter sign-up

Weekly statistics, charts and insights to help you stay on top of the space industry.